Kosmos-2139

operational
NORAD ID: 21216 Int'l Des: 1991-025 Owner: UNKSR Country: SU Constellation: GLONASS
MEOCIRCULAR

Über Kosmos-2139

Beschreibung wird geladen...

Live-Position

3D-Globus wird geladen...

Nächste Überflüge

Höhenverlauf

Altitude vs Time

uPlot chart will show altitude changes over time

Zweizeiliger Elementsatz

1 21216U 91025A 26061.43335984 -.00000028 00000-0 00000-0 0 9994
2 21216 64.4318 308.1535 0015323 223.1212 136.8242 2.13105848271651
Epoch: 2. März 2026 • Age: 44 hours

Aktueller Status

Höhe 19152.2 km
Geschwindigkeit 3.95 km/s
Subsatellitenpunkt -17.61°S, 155.79°W
Startdatum 4. Apr. 1991
Alter 34.9 years
Typ other

Technische Details

Klassifizierung Payload
Masse 1300.00 kg
Trockenmasse 1200.00 kg
Gesamtmasse 1300.00 kg
Länge 4.00 m
Durchmesser 1.50 m
Spannweite 7.80 m
Form Cyl + Ant + 2 Pan
Hersteller POL
Bus-Typ Uragan
Phasenstatus In Orbit
Besitzer/Staat UNKSR/SU

Große Konstellationen

Loading constellations...